Tracking 25710 objects as of 6-Jul-2022
HD Live streaming from Space Station
objects crossing your sky now

FENGYUN 1C DEB

Track FENGYUN 1C DEB now!
10-day predictions


NORAD ID: 30347
Int'l Code: 1999-025ABJ
Perigee: 819.5 km
Apogee: 1,039.0 km
Inclination: 98.5 °
Period: 103.5 minutes
Semi major axis: 7300 km
RCS: 0.028 m2 (small)
Launch date: May 10, 1999
Source: People's Republic of China (PRC)
Launch site: Taiyaun Space Center, China (TSC)

Note: This is SATELLITE DEBRIS
aabbcc
Your satellite tracking list
Your tracking list is empty




NASA's NSSDC Master Catalog

Two Line Element Set (TLE):
1 30347U 99025ABJ 22186.74433465  .00000000  00000-0  28999-4 0  9998
2 30347  98.4907 105.9963 0150371 277.7525 136.7835 13.91857578785031
Source of the keplerian elements: AFSPC